Regional Weather Roundup
Issued by NWS Albany, NY

Home | Current Version | Previous Version | Text Only | Print | Product List | Glossary On
Versions: 1 2 3 4 5 6 7 8 9 10 11 12 13 14 15 16 17 18 19 20 21 22 23 24 25 26 27
000
ASUS41 KALY 270610
RWRALY

NEW YORK STATE HOURLY WEATHER ROUNDUP
NATIONAL WEATHER SERVICE ALBANY NY
200 AM EDT TUE JUN 27 2017

NOTE: "FAIR" INDICATES FEW OR NO CLOUDS BELOW 12,000 FEET WITH NO
SIGNIFICANT WEATHER AND/OR NO OBSTRUCTIONS TO VISIBILITY.

NYZ032-033-038>043-046>054-057>066-NYZ062>081-082-084-270700-
EAST


CITY           SKY/WX    TMP DP  RH WIND       PRES   REMARKS
ALBANY         LGT RAIN  58  55  90 CALM      30.00F
GLENS FALLS    LGT RAIN  57  55  93 S7        29.99S
POUGHKEEPSIE   PTCLDY    60  53  77 CALM      30.00R
NEWBURGH       MOCLDY    66  52  59 CALM      30.03R
MONTGOMERY     LGT RAIN  61  55  81 SE3       30.03R
WHITE PLAINS   MOCLDY    62  59  90 W6        29.98S
ISLIP          CLEAR     65  62  90 SW3       29.98F
NEW YORK CITY  CLOUDY    73  51  46 SW8       29.96F
CENTRAL PARK   MOCLDY    71  51  49 W10G16    30.02R
$$

NYZ005>009-017-018-044>046-055-056-270700-
CENTRAL


CITY           SKY/WX    TMP DP  RH WIND       PRES   REMARKS
FULTON         CLEAR     56  53  90 S9        29.94F
SYRACUSE       PTCLDY    57  53  86 S5        29.95F
ROME           PTCLDY    54  53  97 E5        29.98F
ELMIRA         CLOUDY    54  54 100 W3        29.99S FOG
BINGHAMTON     PTCLDY    51  50  96 S5        30.00F
MONTICELLO     PTCLDY    54  54 100 SE6       30.03F
$$

NYZ026>034-041>043-087-270700-
NORTH


CITY           SKY/WX    TMP DP  RH WIND       PRES   REMARKS
WATERTOWN      CLEAR     55  54  96 S5        29.93S
FORT DRUM      NOT AVBL
OGDENSBURG     FAIR      52  51  97 CALM      29.92F
MASSENA        CLEAR     52  52 100 S5        29.92F
SARANAC LAKE   MOCLDY    43  43 100 CALM      29.94F
PLATTSBURGH    CLOUDY    55  53  93 S6        29.94F
$$

NYZ001>004-010>016-019>021-085-270700-
WEST


CITY           SKY/WX    TMP DP  RH WIND       PRES   REMARKS
NIAGARA FALLS  CLOUDY    58  51  78 S7        29.92F
BUFFALO        CLOUDY    59  49  69 S10       29.93F
DUNKIRK        CLOUDY    57  49  74 SW7       29.95F
JAMESTOWN      MOCLDY    52  43  71 SW3       29.98F
WELLSVILLE     CLEAR     52  45  77 SW6       30.00F
ROCHESTER      CLOUDY    57  52  83 SW10      29.95S
PENN YAN       CLEAR     56  51  84 SW9       29.98F
$$

             KEY
       WCI = WIND CHILL INDEX
       VSB = VISIBILITY
       HX  = HEAT INDEX
$$




USA.gov is the U.S. government's official web portal to all federal, state and local government web resources and services.